• In Uzbekistan
  • List of Countries
  • For 7 days
  • Water Temperature
  • Satellite Maps
  • Weather Map
  • Weather Widgets
  • user-avatar
    Login

    Hourly Weather Brasília

    Today, 18 October, Wednesday

    Time Temperature Precipitation Wind Pressure Humidity
    00:00 +26°C° 0 mm 3 mps 668 mmHg 37%
    01:00 +26°C° 0 mm 3 mps 668 mmHg 38%
    02:00 +25°C° 0 mm 4 mps 668 mmHg 39%
    03:00 +23°C° 0 mm 5 mps 667 mmHg 40%
    04:00 +23°C° 0 mm 5 mps 667 mmHg 43%
    05:00 +22°C° 0 mm 5 mps 668 mmHg 45%
    06:00 +21°C° 0 mm 5 mps 668 mmHg 48%
    07:00 +23°C° 0 mm 5 mps 668 mmHg 45%
    08:00 +25°C° 0 mm 5 mps 669 mmHg 42%
    09:00 +27°C° 0 mm 5 mps 670 mmHg 38%
    10:00 +28°C° 0 mm 5 mps 670 mmHg 34%
    11:00 +30°C° 0 mm 5 mps 670 mmHg 30%
    12:00 +33°C° 0 mm 5 mps 669 mmHg 26%
    13:00 +33°C° 0 mm 4 mps 669 mmHg 25%
    14:00 +33°C° 0 mm 4 mps 668 mmHg 23%
    15:00 +34°C° 0 mm 4 mps 668 mmHg 21%
    16:00 +33°C° 0 mm 3 mps 667 mmHg 22%
    17:00 +30°C° 0 mm 3 mps 667 mmHg 23%
    18:00 +29°C° 0 mm 3 mps 666 mmHg 24%
    19:00 +28°C° 0 mm 3 mps 666 mmHg 26%
    20:00 +27°C° 0 mm 3 mps 667 mmHg 27%
    21:00 +25°C° 0 mm 3 mps 667 mmHg 28%
    22:00 +25°C° 0 mm 3 mps 667 mmHg 28%
    23:00 +24°C° 0 mm 3 mps 667 mmHg 28%

    Tomorrow, 19 October, Thursday

    Time Temperature Precipitation Wind Pressure Humidity
    00:00 +24°C° 0 mm 3 mps 667 mmHg 28%
    01:00 +22°C° 0 mm 3 mps 666 mmHg 29%
    02:00 +21°C° 0 mm 2 mps 666 mmHg 30%
    03:00 +21°C° 0 mm 2 mps 666 mmHg 31%
    04:00 +20°C° 0 mm 3 mps 666 mmHg 33%
    05:00 +20°C° 0 mm 3 mps 666 mmHg 35%
    06:00 +20°C° 0 mm 4 mps 666 mmHg 37%
    07:00 +21°C° 0 mm 4 mps 667 mmHg 38%
    08:00 +23°C° 0 mm 5 mps 668 mmHg 40%
    09:00 +26°C° 0 mm 5 mps 668 mmHg 42%
    10:00 +28°C° 0 mm 4 mps 669 mmHg 35%
    11:00 +30°C° 0 mm 3 mps 669 mmHg 28%
    12:00 +34°C° 0 mm 2 mps 669 mmHg 21%
    13:00 +34°C° 0 mm 2 mps 668 mmHg 20%
    14:00 +34°C° 0 mm 1 mps 668 mmHg 18%
    15:00 +35°C° 0 mm 1 mps 667 mmHg 17%
    16:00 +33°C° 0 mm 1 mps 667 mmHg 18%
    17:00 +32°C° 0 mm 1 mps 667 mmHg 20%
    18:00 +30°C° 0 mm 1 mps 666 mmHg 22%
    19:00 +29°C° 0 mm 2 mps 666 mmHg 23%
    20:00 +28°C° 0 mm 2 mps 667 mmHg 25%
    21:00 +27°C° 0 mm 2 mps 667 mmHg 26%
    22:00 +27°C° 0 mm 2 mps 667 mmHg 28%
    23:00 +26°C° 0 mm 1 mps 667 mmHg 30%

    Day after tomorrow, 20 October, Friday

    Time Temperature Precipitation Wind Pressure Humidity
    00:00 +26°C° 0 mm 1 mps 667 mmHg 32%
    01:00 +25°C° 0 mm 1 mps 666 mmHg 33%
    02:00 +24°C° 0 mm 1 mps 665 mmHg 34%
    03:00 +23°C° 0 mm 1 mps 665 mmHg 36%
    04:00 +23°C° 0 mm 2 mps 665 mmHg 37%
    05:00 +23°C° 0 mm 2 mps 665 mmHg 39%
    06:00 +21°C° 0 mm 2 mps 666 mmHg 41%
    07:00 +25°C° 0 mm 3 mps 667 mmHg 38%
    08:00 +27°C° 0 mm 4 mps 668 mmHg 36%
    09:00 +29°C° 0 mm 5 mps 668 mmHg 33%
    10:00 +30°C° 0 mm 4 mps 668 mmHg 29%
    11:00 +33°C° 0 mm 4 mps 668 mmHg 26%
    12:00 +34°C° 0 mm 3 mps 668 mmHg 22%
    13:00 +34°C° 0 mm 3 mps 668 mmHg 22%
    14:00 +34°C° 0 mm 3 mps 667 mmHg 23%
    15:00 +34°C° 0 mm 3 mps 666 mmHg 23%
    16:00 +32°C° 0 mm 2 mps 666 mmHg 24%
    17:00 +31°C° 0 mm 2 mps 666 mmHg 26%
    18:00 +30°C° 0 mm 2 mps 666 mmHg 28%
    19:00 +29°C° 0 mm 2 mps 666 mmHg 29%
    20:00 +28°C° 0 mm 2 mps 666 mmHg 31%
    21:00 +27°C° 0 mm 2 mps 666 mmHg 32%
    22:00 +27°C° 0 mm 2 mps 666 mmHg 33%
    23:00 +26°C° 0 mm 2 mps 666 mmHg 34%

    21 October, Saturday

    Time Temperature Precipitation Wind Pressure Humidity
    00:00 +26°C° 0 mm 1 mps 666 mmHg 34%
    01:00 +25°C° 0 mm 1 mps 666 mmHg 35%
    02:00 +25°C° 0 mm 1 mps 665 mmHg 36%
    03:00 +24°C° 0 mm 1 mps 665 mmHg 37%
    04:00 +24°C° 0 mm 2 mps 665 mmHg 36%
    05:00 +24°C° 0 mm 2 mps 666 mmHg 36%
    06:00 +24°C° 0 mm 3 mps 666 mmHg 36%
    07:00 +26°C° 0 mm 4 mps 667 mmHg 34%
    08:00 +28°C° 0 mm 5 mps 668 mmHg 32%
    09:00 +30°C° 0 mm 6 mps 669 mmHg 30%
    10:00 +32°C° 0 mm 5 mps 669 mmHg 28%
    11:00 +33°C° 0 mm 5 mps 668 mmHg 25%
    12:00 +35°C° 0 mm 5 mps 668 mmHg 23%
    13:00 +35°C° 0 mm 5 mps 668 mmHg 22%
    14:00 +35°C° 0 mm 4 mps 667 mmHg 22%
    15:00 +35°C° 0 mm 3 mps 667 mmHg 21%
    16:00 +34°C° 0 mm 3 mps 667 mmHg 23%
    17:00 +32°C° 0 mm 2 mps 667 mmHg 25%
    18:00 +31°C° 0 mm 2 mps 666 mmHg 27%
    19:00 +30°C° 0 mm 1 mps 667 mmHg 29%
    20:00 +29°C° 0 mm 1 mps 667 mmHg 30%
    21:00 +28°C° 0 mm 1 mps 667 mmHg 32%
    22:00 +27°C° 0 mm 1 mps 667 mmHg 34%
    23:00 +26°C° 0 mm 1 mps 667 mmHg 35%

    22 October, Sunday

    Time Temperature Precipitation Wind Pressure Humidity
    00:00 +26°C° 0 mm 1 mps 666 mmHg 37%
    01:00 +25°C° 0 mm 1 mps 666 mmHg 37%
    02:00 +25°C° 0 mm 1 mps 666 mmHg 38%
    03:00 +24°C° 0 mm 1 mps 665 mmHg 39%
    04:00 +24°C° 0 mm 1 mps 665 mmHg 38%
    05:00 +24°C° 0 mm 2 mps 666 mmHg 38%
    06:00 +24°C° 0 mm 3 mps 666 mmHg 37%
    07:00 +27°C° 0 mm 3 mps 667 mmHg 34%
    08:00 +29°C° 0 mm 4 mps 668 mmHg 32%
    09:00 +32°C° 0 mm 5 mps 669 mmHg 29%
    10:00 +34°C° 0 mm 5 mps 669 mmHg 26%
    11:00 +35°C° 0 mm 4 mps 669 mmHg 23%
    12:00 +37°C° 0 mm 4 mps 669 mmHg 21%
    13:00 +36°C° 0 mm 3 mps 668 mmHg 22%
    14:00 +35°C° 0 mm 3 mps 667 mmHg 23%
    15:00 +34°C° 0 mm 2 mps 666 mmHg 25%
    16:00 +32°C° 0 mm 2 mps 666 mmHg 27%
    17:00 +31°C° 0 mm 2 mps 666 mmHg 29%
    18:00 +30°C° 0 mm 2 mps 666 mmHg 31%
    19:00 +29°C° 0 mm 1 mps 666 mmHg 32%
    20:00 +28°C° 0 mm 1 mps 666 mmHg 34%
    21:00 +28°C° 0 mm 1 mps 666 mmHg 35%
    22:00 +27°C° 0 mm 1 mps 666 mmHg 37%
    23:00 +26°C° 0 mm 1 mps 665 mmHg 39%

    23 October, Monday

    Time Temperature Precipitation Wind Pressure Humidity
    00:00 +25°C° 0 mm 1 mps 665 mmHg 41%
    01:00 +25°C° 0 mm 1 mps 665 mmHg 42%
    02:00 +25°C° 0 mm 1 mps 665 mmHg 42%
    03:00 +25°C° 0 mm 1 mps 664 mmHg 43%
    04:00 +25°C° 0 mm 2 mps 665 mmHg 44%
    05:00 +25°C° 0 mm 2 mps 666 mmHg 45%
    06:00 +25°C° 0 mm 3 mps 666 mmHg 46%
    07:00 +27°C° 0 mm 3 mps 667 mmHg 40%
    08:00 +29°C° 0 mm 3 mps 667 mmHg 34%
    09:00 +32°C° 0 mm 4 mps 668 mmHg 29%
    10:00 +33°C° 0 mm 4 mps 668 mmHg 25%
    11:00 +35°C° 0 mm 4 mps 668 mmHg 22%
    12:00 +37°C° 0 mm 3 mps 667 mmHg 19%
    13:00 +36°C° 0 mm 3 mps 667 mmHg 20%
    14:00 +36°C° 0 mm 3 mps 666 mmHg 20%
    15:00 +35°C° 0 mm 2 mps 665 mmHg 21%
    16:00 +34°C° 0 mm 2 mps 665 mmHg 23%
    17:00 +32°C° 0 mm 2 mps 665 mmHg 24%
    18:00 +31°C° 0 mm 1 mps 665 mmHg 26%
    19:00 +30°C° 0 mm 1 mps 665 mmHg 28%
    20:00 +29°C° 0 mm 1 mps 665 mmHg 30%
    21:00 +28°C° 0 mm 1 mps 665 mmHg 32%
    22:00 +28°C° 0 mm 1 mps 665 mmHg 34%
    23:00 +27°C° 0 mm 1 mps 665 mmHg 36%
    Show more